Location: Mexico
(19.4000°N, 99.1500°W)
Time: 22:01:34
(UTC-06:00)

ISS - Pass Details

Date: 19 March 2018
Orbit: 402 x 408 km, 51.6° (Epoch: 19 July)

Event Time Altitude Azimuth Distance (km) Brightness Sun altitude
Rises 19:38:44 0° 184° (S) 2,328 0.0 -12.9°
Reaches altitude 10° 19:41:35 10° 156° (SSE) 1,473 -1.3 -13.6°
Enters shadow 19:42:01 11° 150° (SSE) 1,391 -1.5 -13.7°
